Regional Weather Roundup
Issued by NWS Green Bay, WI

Home | Current Version | Previous Version | Text Only | Print | Product List | Glossary On
Versions: 1 2 3 4 5 6 7 8 9 10 11 12 13 14 15 16 17 18 19 20 21 22 23 24 25 26 27 28 29 30 31 32 33 34 35 36 37 38 39 40 41 42 43 44 45 46 47 48 49 50
000
ASUS43 KGRB 020511
RWRGRB

NORTH-CENTRAL AND NORTHEAST WISCONSIN REGIONAL WEATHER ROUNDUP
NATIONAL WEATHER SERVICE GREEN BAY WI
1200 AM CDT SUN AUG 02 2015

WIZ005-009-010>012-018-019-020600-
NORTH CENTRAL WISCONSIN

CITY           SKY/WX    TMP DP  RH WIND       PRES   REMARKS
IRONWOOD       PTCLDY    66  55  68 SW8       29.73S
MANITOWISH WTR PTCLDY    59  56  92 SW3       29.79S
ARBOR VITAE    CLEAR     59  56  89 CALM      29.80S
EAGLE RIVER    CLEAR     61  53  75 SW8       29.79F
LAND O LAKES   CLEAR     55  53  91 CALM      29.80F
RHINELANDER    CLEAR     66  56  70 SW8       29.81F
PHILLIPS       CLEAR     64  58  80 SW6       29.79F
ANTIGO         PTCLDY    61  55  82 SW5       29.83S
TOMAHAWK       PTCLDY    61  56  84 CALM      29.81F
MERRILL        NOT AVBL
$$

WIZ013-073-020600-
NORTHEAST WISCONSIN

CITY           SKY/WX    TMP DP  RH WIND       PRES   REMARKS
IRON MOUNTAIN  CLEAR     62  53  72 S3        29.77F
MARINETTE      PTCLDY    66  52  59 W5        29.78S
OCONTO         CLEAR     60  56  87 CALM      29.79S
$$

WIZ017-030-035>037-045-020600-
CENTRAL WISCONSIN

CITY           SKY/WX    TMP DP  RH WIND       PRES   REMARKS
MEDFORD        MOCLDY    64  59  83 S5        29.82F
WAUSAU         PTCLDY    67  58  72 S7        29.81F
MOSINEE        PTCLDY    63  59  88 SW6       29.84F
MARSHFIELD     CLEAR     64  58  80 SW3       29.83F
WISC RAPIDS    PTCLDY    66  59  78 CALM      29.84F
STEVENS POINT  PTCLDY    66  57  72 S5        29.84F
WAUPACA        CLEAR     65  58  78 CALM      29.83S
SHAWANO        PTCLDY    66  56  69 SW3       29.81F
CLINTONVILLE   CLEAR     63  54  72 CALM      29.81S
$$

WIZ038-039-048-051-020600-
FOX VALLEY

CITY           SKY/WX    TMP DP  RH WIND       PRES   REMARKS
NWS GREEN BAY  CLEAR     62  56  80 SW3       29.81F
APPLETON       CLEAR     68  54  60 SW8       29.82F
OSHKOSH        CLEAR     70  58  65 SW5       29.82F
FOND DU LAC    CLEAR     69  59  70 SW7       29.84S
$$

WIZ022-050-052-020600-
EAST CENTRAL WISCONSIN

CITY           SKY/WX    TMP DP  RH WIND       PRES   REMARKS
STURGEON BAY   PTCLDY    64  52  63 SW6       29.82S
MANITOWOC      CLEAR     64  56  75 MISG      29.82F
SHEBOYGAN      CLEAR     62  58  86 CALM      29.83F
$$

LMZ563-521-522-541>543-020600-
LAKESHORE

STATION/POSITION TIME  TEMP    WIND        PRES    VSBY  WAVE
                       AIR SEA DIR/SP/G                  HT/PER
                 (UTC) (F)     (DEG/KT/KT) (MB)    (MI)  (FT/S)
SHEBOYGAN LKSHOR 0500   68     200/  4/  5 1010.1F
KEWAUNEE LKSHORE 0400   67     300/  3/  4 1009.3F
ALGOMA MARINA    0412             CALM       N/A
NORTHPORT PIER   0500   67     190/  1/ 21 1008.5S
N MID LAKE BUOY  0450   70 69  220/ 12/ 14 1007.8F         2/ 4
S GREEN BAY BUOY 0500   70 69  220/  8/ 10 1010.4
SISTER BAY LKSHO 0444   73     230/  8/  9   N/A
CHAMBERS ISLAND  0400   71     200/  5/  7 1008.5F
MENOMINEE LKSHOR 0400   72     230/  7/  8 1009.5F
$$


USA.gov is the U.S. government's official web portal to all federal, state and local government web resources and services.